Flag for Hungary Weather past 2 weeks in Szeged, Hungary

Now
77 °F

Passing clouds.


Feels Like: 78 °F
Forecast: 64 / 94 °F
Wind: 2 mph from West

Location: Szeged

Current Time: Jul 5, 2015 at 10:28:22 PM

Latest Report: Jul 5, 2015 at 9:00 PM


Visibility: 19 mi

Pressure: 30.01 "Hg

Humidity: 61%

Dew point: 62 °F

Location of SzegedLocation

Historic Weather in Szeged — Graph

°F

Szeged temperature yesterday

Maximum temperature yesterday: 88 °F (at 5:00 PM)
Minimum temperature yesterday: 56 °F (at 5:00 AM)
Average temperature yesterday: 74 °F

Past Weeks' High & Low Weather Summary

 TemperatureHumidityPressure
High92 °F (Jul 5, 3:00 PM)96% (Jun 30, 5:00 AM)30.29 "Hg (Jun 30, 5:00 AM)
Low45 °F (Jun 22, 5:00 AM)31% (Jul 4, 2:00 PM)29.85 "Hg (Jun 23, 2:00 PM)
Average67 °F68%30.08 "Hg
* Reported Jun 20 9:00 PM — Jul 5 9:00 PM, Szeged, Weather by CustomWeather, © 2015

Note: Actual official high and low records may vary slightly from our data, if they occured in-between our weather recording intervals... More about our weather records

Advertising

Szeged weather history for previous 24 hours

 ConditionsComfort  
Time TempWeatherWind HumidityBarometerVisibility
9:00 PM
Sun, Jul 5
77 °FPassing clouds.2 mph61%30.01 "Hg19 mi
8:00 PM84 °FPassing clouds.3 mph47%30.01 "Hg22 mi
7:00 PM88 °FPassing clouds.3 mph37%30.01 "Hg25 mi
6:00 PM89 °FPassing clouds.3 mph36%30.01 "Hg28 mi
5:00 PM87 °FScattered clouds.3 mph39%30.02 "Hg28 mi
4:00 PM90 °FScattered clouds.3 mph38%30.03 "Hg31 mi
3:00 PM92 °FScattered clouds.1 mph35%30.03 "Hg31 mi
2:00 PM89 °FPassing clouds.3 mph40%30.05 "Hg31 mi
1:00 PM89 °FPassing clouds.3 mph37%30.06 "Hg31 mi
12:00 PM87 °FPassing clouds.3 mph37%30.07 "Hg28 mi
11:00 AM85 °FPassing clouds.3 mph44%30.08 "Hg28 mi
10:00 AM83 °FSunny.2 mph49%30.09 "Hg28 mi
9:00 AM78 °FSunny.3 mph52%30.09 "Hg28 mi
8:00 AM75 °FSunny.2 mph61%30.09 "Hg28 mi
7:00 AM69 °FSunny.1 mph77%30.10 "Hg19 mi
6:00 AM59 °FSunny.1 mph91%30.10 "Hg19 mi
5:00 AM58 °FPassing clouds.1 mph91%30.11 "Hg19 mi
4:00 AM59 °FClear.1 mph89%30.11 "Hg16 mi
3:00 AM61 °FClear.2 mph86%30.11 "Hg16 mi
2:00 AM61 °FPassing clouds.1 mph90%30.11 "Hg16 mi
1:00 AM62 °FPassing clouds.No wind87%30.11 "Hg16 mi
12:00 AM64 °FPassing clouds.1 mph85%30.12 "Hg16 mi
11:00 PM
Sat, Jul 4
66 °FPassing clouds.1 mph83%30.12 "Hg16 mi
10:00 PM69 °FPassing clouds.1 mph78%30.13 "Hg19 mi
Weather by CustomWeather, © 2015

See weather overviewHow to use our weather pages